HST 1 20580U 90037B 25352.01685449 .00005616 00000+0 19114-3 0 9994 2 20580 28.4674 236.5696 0001951 306.2349 53.8065 15.28122551760808 POLAR 1 23802U 96013A 25352.80568198 .00000192 00000+0 00000+0 0 9996 2 23802 79.6373 229.0871 6290371 215.1832 79.5758 1.29846054142514 SWAS 1 25560U 98071A 25354.29289466 .00003065 00000+0 20535-3 0 9999 2 25560 69.8972 328.3475 0006107 207.0036 153.0811 15.08010502470287 CXO 1 25867U 99040B 25357.19663071 .00000723 00000+0 00000+0 0 9995 2 25867 53.1982 122.2065 8120384 310.7813 0.3709 0.37795859 16655 XMM-NEWTON 1 25989U 99066A 25352.84950202 .00000081 00000+0 00000+0 0 9997 2 25989 65.4033 285.3699 4740231 68.0474 0.2178 0.50133546 22108 TERRA 1 25994U 99068A 25354.55109751 .00000314 00000+0 73190-4 0 9994 2 25994 97.9737 45.9485 0003538 79.0674 28.9885 14.60909835383526 CLUSTER II-FM7 (SAMBA) 1 26410U 00041A 25356.82956017 .00003777 00000+0 00000+0 0 9999 2 26410 147.7485 26.0525 8774398 241.8479 359.6851 0.44822013 19519 CLUSTER II-FM8 (TANGO) 1 26464U 00045B 25355.52316153 .00003936 00000+0 00000+0 0 9996 2 26464 148.0433 26.6344 8777294 242.2748 359.8882 0.44424386 19519 ODIN 1 26702U 01007A 25354.12500946 .00022243 00000+0 37425-3 0 9997 2 26702 97.4202 22.2847 0005319 90.1727 270.0134 15.51730414361471 TIMED 1 26998U 01055B 25354.14043474 .00000963 00000+0 92332-4 0 9991 2 26998 74.0674 235.3835 0000684 212.2061 147.9082 14.94712042304063 CORIOLIS 1 27640U 03001A 25354.49421678 .00000106 00000+0 70519-4 0 9995 2 27640 98.7140 359.1071 0014220 12.0385 348.1129 14.19875183188860 SORCE 1 27651U 03004A 25354.28269827 .00002421 00000+0 19054-3 0 9991 2 27651 39.9890 201.4603 0017138 209.5378 150.4448 15.02337338244978 MOST 1 27843U 03031D 25353.97846706 .00000061 00000+0 47919-4 0 9996 2 27843 98.7064 359.1973 0010730 53.8076 306.4091 14.21272258165253 SCISAT 1 1 27858U 03036A 25354.45882886 .00000491 00000+0 67901-4 0 9990 2 27858 73.9285 166.3822 0008585 270.8571 89.1621 14.81129848204986 SWIFT 1 28485U 04047A 25354.52236283 .00028982 00000+0 46487-3 0 9992 2 28485 20.5536 106.0240 0004251 26.5753 333.4907 15.51066627158926 HINODE (SOLAR-B) 1 29479U 06041A 25354.32207743 .00000478 00000+0 91167-4 0 9995 2 29479 98.0643 8.0562 0018518 132.8126 227.4639 14.68313635 28621 SHIJIAN-6 02A (SJ-6 02A) 1 29505U 06046A 25354.58853355 .00006153 00000+0 33887-3 0 9994 2 29505 97.6607 29.3821 0004396 51.7111 308.4516 15.14386270 45217 SHIJIAN-6 02B (SJ-6 02B) 1 29506U 06046B 25354.55657376 .00001926 00000+0 15712-3 0 9997 2 29506 97.6887 20.0552 0013336 312.2019 47.8072 15.00564926 43943 FGRST (GLAST) 1 33053U 08029A 25354.33914997 .00003276 00000+0 12286-3 0 9996 2 33053 25.5838 5.2108 0008421 20.8988 339.1894 15.22649510968536 SDO 1 36395U 10005A 25354.30501822 -.00000078 00000+0 00000+0 0 9996 2 36395 34.2760 89.0726 0001110 157.9093 209.9073 1.00269936 58277 CRYOSAT 2 1 36508U 10013A 25354.57872767 .00000125 00000+0 30309-4 0 9991 2 36508 92.0256 234.0675 0002478 95.4233 264.7257 14.51899095832166 X-SAT 1 37389U 11015C 25354.54864250 .00000028 00000+0 29404-4 0 9993 2 37389 98.3309 335.2943 0014600 143.2851 216.9333 14.25132210762236 GCOM-W1 (SHIZUKU) 1 38337U 12025A 25354.58179986 .00000421 00000+0 10352-3 0 9996 2 38337 98.2227 292.6879 0001310 67.8173 105.3475 14.57135693723029 NUSTAR 1 38358U 12031A 25354.58336806 .00003434 00000+0 17055-3 0 9996 2 38358 6.0281 291.7408 0009103 325.5519 16.0941 15.06498650 1309 NEOSSAT 1 39089U 13009D 25354.45880917 .00000137 00000+0 62186-4 0 9990 2 39089 98.4074 173.7973 0012004 62.1627 298.0774 14.35734292671091 BRITE-AUSTRIA 1 39091U 13009F 25354.47609889 .00000151 00000+0 66124-4 0 9994 2 39091 98.3887 173.3971 0011159 57.4179 302.8083 14.36439927671396 IRIS 1 39197U 13033A 25354.54791102 .00001260 00000+0 15239-3 0 9998 2 39197 97.9392 189.3121 0024494 180.4830 179.6365 14.85307969673850 HISAKI (SPRINT-A) 1 39253U 13049A 25354.52910818 .00000099 00000+0 49181-4 0 9996 2 39253 29.7211 48.3020 0136960 8.4628 351.8217 13.55522195607161 CASSIOPE 1 39265U 13055A 25354.57967270 .00031997 -30725-6 42417-3 0 9995 2 39265 80.9207 281.5798 0338712 299.4025 57.3777 15.12113694640557 STSAT-3 1 39422U 13066G 25354.58983845 .00002381 00000+0 18876-3 0 9991 2 39422 97.6019 322.7944 0012802 287.2126 72.7697 15.01435825657398 SWARM B 1 39451U 13067A 25351.71023028 .00002957 00000+0 11017-3 0 9993 2 39451 87.7441 37.3525 0003127 82.9666 277.1938 15.27053080655532 SWARM A 1 39452U 13067B 25354.58391640 .00008452 00000+0 16878-3 0 9996 2 39452 87.3371 122.3748 0002275 93.6600 266.4919 15.46645608678600 SWARM C 1 39453U 13067C 25354.58382958 .00008312 00000+0 16598-3 0 9993 2 39453 87.3370 120.9599 0002279 93.8532 266.2988 15.46644177678567 BRITE-CA1 (TORONTO) 1 40020U 14033L 25354.32039239 .00000937 00000+0 14910-3 0 9993 2 40020 97.9498 121.8870 0080248 129.0380 231.8006 14.72231099615893 OCO 2 1 40059U 14035A 25354.54565165 .00000355 00000+0 89064-4 0 9990 2 40059 98.2227 293.3967 0001348 96.9605 263.1746 14.57055715610039 BRITE-PL2 (HEWELIUSZ) 1 40119U 14049B 25354.57164384 .00001684 00000+0 16460-3 0 9998 2 40119 97.8998 100.4760 0013880 347.3074 12.7794 14.93686991614774 MMS 1 1 40482U 15011A 25354.58336806 -.00000622 00000+0 00000+0 0 9993 2 40482 69.3674 351.4196 8498609 163.4561 81.5442 0.28365593 1303 MMS 2 1 40483U 15011B 25354.58336806 -.00000623 00000+0 00000+0 0 9995 2 40483 69.3652 351.4100 8500096 163.4729 81.5089 0.28365413 1303 MMS 3 1 40484U 15011C 25354.58336806 -.00000622 00000+0 00000+0 0 9995 2 40484 69.3699 351.4265 8500038 163.4688 81.5046 0.28365421 1309 MMS 4 1 40485U 15011D 25354.58336806 -.00000623 00000+0 00000+0 0 9997 2 40485 69.3695 351.4188 8501349 163.4556 81.5415 0.28365410 1308 ASTROSAT 1 40930U 15052A 25354.11942280 .00001555 00000+0 10913-3 0 9997 2 40930 5.9974 3.8866 0008131 354.9256 5.0789 14.82035108553217 DAMPE 1 41173U 15078A 25354.55144323 .00000932 00000+0 34531-4 0 9996 2 41173 97.4539 354.2284 0012254 358.6223 1.4982 15.30179915557222 PISAT 1 41784U 16059B 25354.58914986 .00000774 00000+0 14071-3 0 9997 2 41784 97.8156 357.8018 0030503 57.6626 302.7527 14.68513005493529 HXMT (HUIYAN) 1 42758U 17034A 25354.62988877 .00004228 00000+0 22377-3 0 9994 2 42758 43.0144 95.8412 0031077 95.2669 265.1726 15.16318682470537 FLYING LAPTOP 1 42831U 17042G 25354.60725910 .00002869 00000+0 23499-3 0 9995 2 42831 97.4246 152.8687 0014536 23.4488 336.7396 14.99960319459676 ZHANGHENG 1-01 (CSES-1) 1 43194U 18015C 25354.63440117 .00007095 00000+0 32121-3 0 9993 2 43194 97.6655 151.9499 0018465 177.8547 182.2771 15.21059897437506 SALSAT 1 46495U 20068K 25353.48061531 .00006196 00000+0 24069-3 0 9995 2 46495 97.8779 341.1169 0009485 202.4725 157.6098 15.26432785287916 IXPE 1 49954U 21121A 25354.58336806 .00009251 00000+0 52559-3 0 9991 2 49954 0.2286 226.7728 0007532 262.9049 18.3796 15.08057495 5771